Latest Coastal Weather Observations for Yamba

IDN60701

Issued at 4:01 pm EST Monday 1 May 2017 (issued every 10 minutes, with the page automatically refreshed every 10 minutes)

About coastal observations | Map of coastal stations | Coastal observations for NSW | Marine services | Other Formats
Station Details ID: 058012 Name: YAMBA PILOT STATION Lat: -29.43 Lon: 153.36 Height: 27.4 m
Data from the previous 72 hours. | See also: Recent months at Yamba
Date/Time
EST
Temp
°C
Wind Pressure Rain since
9am
mm
Weather Cloud Vis
km
Sea
Height
m
Swell
Dir  Spd
kts
Gust
kts
hPa Trend Height
m
Period
s
Dir
01/03:30pm 22.2 NE 5 8 1018.6 - 0.0 - - - - - - -
01/03:00pm 22.2 ENE 5 8 1018.6 - 0.0 - - - - - - -
01/02:30pm 22.5 ENE 5 7 1018.8 - 0.0 - - - - - - -
01/02:00pm 22.6 ENE 4 5 1018.9 - 0.0 - - - - - - -
01/01:30pm 22.6 E 4 5 1018.9 - 0.0 - - - - - - -
01/01:00pm 22.9 N 3 4 1019.1 - 0.0 - - - - - - -
01/12:30pm 21.8 NNW 4 5 1019.6 - 0.0 - - - - - - -
01/12:00pm 22.3 NW 3 5 1020.1 - 0.0 - - - - - - -
01/11:30am 22.5 NW 5 8 1020.7 - 0.0 - - - - - - -
01/11:00am 22.5 NW 5 7 1021.0 - 0.0 - - - - - - -
01/10:30am 22.3 WNW 5 7 1021.4 - 0.0 - - - - - - -
01/10:00am 21.5 W 4 6 1021.6 - 0.0 - - - - - - -
01/09:30am 19.9 WSW 5 7 1021.8 - 0.0 - - - - - - -
01/09:00am 19.0 WSW 5 8 1021.9 - 0.0 - - - - - - -
01/08:30am 18.1 WSW 5 6 1021.9 - 0.0 - - - - - - -
01/08:00am 16.6 WSW 6 8 1022.0 - 0.0 - - - - - - -
01/07:30am 15.5 WSW 6 9 1021.7 - 0.0 - - - - - - -
01/07:00am 14.8 W 6 8 1021.4 - 0.0 - - - - - - -
01/06:30am 14.4 WSW 5 7 1021.1 - 0.0 - - - - - - -
01/06:00am 14.3 WSW 5 7 1020.8 - 0.0 - - - - - - -
01/05:30am 14.4 WSW 5 8 1020.6 - 0.0 - - - - - - -
01/05:00am 14.5 WSW 5 7 1020.4 - 0.0 - - - - - - -
01/04:30am 14.6 WSW 5 7 1020.2 - 0.0 - - - - - - -
01/04:00am 14.7 WSW 5 8 1020.1 - 0.0 - - - - - - -
01/03:30am 14.8 WSW 6 8 1020.2 - 0.0 - - - - - - -
01/03:00am 15.1 SW 5 7 1020.2 - 0.0 - - - - - - -
01/02:30am 15.3 SW 5 7 1020.3 - 0.0 - - - - - - -
01/02:00am 15.3 SW 5 7 1020.5 - 0.0 - - - - - - -
01/01:30am 15.7 SW 6 8 1020.7 - 0.0 - - - - - - -
01/01:00am 15.8 SW 5 7 1020.8 - 0.0 - - - - - - -
01/12:30am 16.0 SW 5 8 1020.7 - 0.0 - - - - - - -
01/12:00am 16.2 SW 5 8 1020.9 - 0.0 - - - - - - -
 
Date/Time
EST
Temp
°C
Wind Pressure Rain since
9am
mm
Weather Cloud Vis
km
Sea
Height
m
Swell
Dir  Spd
kts
Gust
kts
hPa Trend Height
m
Period
s
Dir
30/11:30pm 16.3 SW 4 6 1021.2 - 0.0 - - - - - - -
30/11:00pm 16.6 SW 6 7 1021.2 - 0.0 - - - - - - -
30/10:30pm 16.7 SW 5 8 1021.2 - 0.0 - - - - - - -
30/10:00pm 17.1 SW 5 7 1021.2 - 0.0 - - - - - - -
30/09:30pm 17.8 SSW 5 7 1021.3 - 0.0 - - - - - - -
30/09:00pm 18.5 SSW 6 8 1021.4 - 0.0 - - - - - - -
30/08:30pm 19.0 S 6 8 1021.3 - 0.0 - - - - - - -
30/08:00pm 20.3 SSE 8 12 1021.2 - 0.0 - - - - - - -
30/07:30pm 20.4 SSE 8 11 1020.9 - 0.0 - - - - - - -
30/07:00pm 20.5 SSE 9 12 1020.9 - 0.0 - - - - - - -
30/06:30pm 20.4 SSE 9 11 1020.7 - 0.0 - - - - - - -
30/06:00pm 20.3 SSE 9 13 1020.4 - 0.0 - - - - - - -
30/05:30pm 20.5 SSE 9 12 1020.2 - 0.0 - - - - - - -
30/05:00pm 20.6 SE 11 15 1020.0 - 0.0 - - - - - - -
30/04:30pm 21.0 SE 12 18 1019.6 - 0.0 - - - - - - -
30/04:00pm 21.3 SSE 13 18 1019.4 - 0.0 - - - - - - -
30/03:30pm 21.6 SE 11 16 1019.3 - 0.0 - - - - - - -
30/03:00pm 21.8 SSE 12 17 1019.3 - 0.0 - - - - - - -
30/02:30pm 21.6 SSE 12 17 1019.4 - 0.0 - - - - - - -
30/02:00pm 22.0 SE 12 17 1019.6 - 0.0 - - - - - - -
30/01:30pm 21.9 SSE 11 15 1019.6 - 0.0 - - - - - - -
30/01:00pm 21.9 SSE 10 16 1019.9 - 0.0 - - - - - - -
30/12:30pm 22.3 SSE 11 15 1020.2 - 0.0 - - - - - - -
30/12:00pm 22.1 SSE 9 14 1020.7 - 0.0 - - - - - - -
30/11:30am 22.6 SSE 9 15 1021.0 - 0.0 - - - - - - -
30/11:00am 21.6 S 7 11 1021.3 - 0.0 - - - - - - -
30/10:30am 21.0 S 7 10 1021.5 - 0.0 - - - - - - -
30/10:00am 20.7 SSW 7 10 1021.5 - 0.0 - - - - - - -
30/09:30am 20.3 SW 5 8 1021.6 - 0.0 - - - - - - -
30/09:00am 19.3 SW 5 9 1021.5 - 0.0 - - - - - - -
30/08:30am 18.0 SW 5 8 1021.5 - 0.0 - - - - - - -
30/08:00am 16.9 SW 5 8 1021.2 - 0.0 - - - - - - -
30/07:30am 16.0 SW 6 9 1021.0 - 0.0 - - - - - - -
30/07:00am 14.8 SW 5 8 1020.7 - 0.0 - - - - - - -
30/06:30am 14.6 SW 4 6 1020.4 - 0.0 - - - - - - -
30/06:00am 14.8 SW 5 7 1019.9 - 0.0 - - - - - - -
30/05:30am 14.9 SW 5 7 1019.7 - 0.0 - - - - - - -
30/05:00am 14.7 SW 5 7 1019.4 - 0.0 - - - - - - -
30/04:30am 14.6 SW 4 7 1019.3 - 0.0 - - - - - - -
30/04:00am 14.6 SW 5 10 1019.2 - 0.0 - - - - - - -
30/03:30am 14.6 SW 5 8 1019.1 - 0.0 - - - - - - -
30/03:00am 14.8 WSW 6 9 1018.8 - 0.0 - - - - - - -
30/02:30am 15.1 W 6 8 1019.0 - 0.0 - - - - - - -
30/02:00am 15.4 WSW 6 8 1019.1 - 0.0 - - - - - - -
30/01:30am 15.4 WSW 6 8 1019.3 - 0.0 - - - - - - -
30/01:00am 15.3 WSW 6 7 1019.3 - 0.0 - - - - - - -
30/12:30am 15.7 SW 6 9 1019.4 - 0.0 - - - - - - -
30/12:00am 15.8 SW 7 9 1019.4 - 0.0 - - - - - - -
 
Date/Time
EST
Temp
°C
Wind Pressure Rain since
9am
mm
Weather Cloud Vis
km
Sea
Height
m
Swell
Dir  Spd
kts
Gust
kts
hPa Trend Height
m
Period
s
Dir
29/11:30pm 16.3 SW 6 8 1019.4 - 0.0 - - - - - - -
29/11:00pm 17.1 SSW 7 8 1019.3 - 0.0 - - - - - - -
29/10:30pm 17.2 SW 5 7 1019.4 - 0.0 - - - - - - -
29/10:00pm 16.8 SW 5 7 1019.6 - 0.0 - - - - - - -
29/09:30pm 17.1 SW 5 7 1019.6 - 0.0 - - - - - - -
29/09:00pm 18.6 S 4 6 1019.4 - 0.0 - - - - - - -
29/08:30pm 19.6 SE 6 8 1019.3 - 0.0 - - - - - - -
29/08:00pm 19.6 SE 7 9 1019.2 - 0.0 - - - - - - -
29/07:30pm 19.8 SE 8 11 1019.2 - 0.0 - - - - - - -
29/07:00pm 19.8 SE 9 11 1019.1 - 0.0 - - - - - - -
29/06:30pm 19.9 SE 8 11 1018.8 - 0.0 - - - - - - -
29/06:00pm 19.7 SE 7 9 1018.4 - 0.0 - - - - - - -
29/05:30pm 19.9 SE 7 9 1018.1 - 0.0 - - - - - - -
29/05:00pm 20.1 SE 8 9 1018.0 - 0.0 - - - - - - -
29/04:30pm 20.4 SE 8 11 1017.9 - 0.0 - - - - - - -
29/04:00pm 20.8 SE 10 14 1017.7 - 0.0 - - - - - - -
29/03:30pm 21.0 SE 11 15 1017.7 - 0.0 - - - - - - -
29/03:00pm 21.4 SE 11 15 1017.9 - 0.0 - - - - - - -
29/02:30pm 21.4 SSE 10 14 1017.9 - 0.0 - - - - - - -
29/02:00pm 21.8 SE 11 14 1017.9 - 0.0 - - - - - - -
29/01:30pm 21.7 SSE 11 17 1017.9 - 0.0 - - - - - - -
29/01:00pm 21.4 SSE 12 17 1018.2 - 0.0 - - - - - - -
29/12:30pm 21.8 SSE 12 16 1018.5 - 0.0 - - - - - - -
29/12:00pm 22.1 SSE 10 14 1018.9 - 0.0 - - - - - - -
29/11:30am 21.3 SSW 5 9 1019.3 - 0.0 - - - - - - -
29/11:00am 20.9 S 5 8 1019.8 - 0.0 - - - - - - -
29/10:30am 20.3 SSW 7 10 1020.1 - 0.0 - - - - - - -
29/10:00am 20.0 SW 5 9 1020.2 - 0.0 - - - - - - -
29/09:30am 19.2 SW 5 9 1020.2 - 0.0 - - - - - - -
29/09:00am 18.1 SW 6 9 1020.0 - 0.0 - - - - - - -
29/08:30am 16.9 SW 5 10 1019.8 - 0.0 - - - - - - -
29/08:00am 15.5 WSW 6 9 1019.7 - 0.0 - - - - - - -
29/07:30am 14.5 SW 6 12 1019.4 - 0.0 - - - - - - -
29/07:00am 13.3 SW 5 8 1019.0 - 0.0 - - - - - - -
29/06:30am 12.5 WSW 4 6 1018.6 - 0.0 - - - - - - -
29/06:00am 12.6 WSW 5 7 1018.3 - 0.0 - - - - - - -
29/05:30am 12.9 WSW 5 8 1018.1 - 0.0 - - - - - - -
29/05:00am 13.3 WSW 5 7 1018.1 - 0.0 - - - - - - -
29/04:30am 13.9 SW 6 9 1017.8 - 0.0 - - - - - - -
29/04:00am 14.4 SW 6 11 1017.6 - 0.0 - - - - - - -
29/03:30am 14.3 SW 6 10 1017.6 - 0.0 - - - - - - -
29/03:00am 14.2 SW 6 9 1017.6 - 0.0 - - - - - - -
29/02:30am 14.2 SW 4 9 1017.7 - 0.0 - - - - - - -
29/02:00am 14.8 SW 6 9 1017.8 - 0.0 - - - - - - -
29/01:30am 14.7 SW 5 8 1018.0 - 0.0 - - - - - - -
29/01:00am 15.1 WSW 5 8 1018.2 - 0.0 - - - - - - -
29/12:30am 16.4 SSW 6 11 1018.4 - 0.0 - - - - - - -
29/12:00am 16.6 SSW 8 12 1018.5 - 0.0 - - - - - - -
 
Date/Time
EST
Temp
°C
Wind Pressure Rain since
9am
mm
Weather Cloud Vis
km
Sea
Height
m
Swell
Dir  Spd
kts
Gust
kts
hPa Trend Height
m
Period
s
Dir
28/11:30pm 16.8 SSW 9 14 1018.7 - 0.0 - - - - - - -
28/11:00pm 17.1 SSW 9 15 1018.8 - 0.0 - - - - - - -
28/10:30pm 17.3 SSW 9 14 1018.9 - 0.0 - - - - - - -
28/10:00pm 17.7 SSW 11 17 1018.9 - 0.0 - - - - - - -
28/09:30pm 17.8 SSW 10 18 1018.9 - 0.0 - - - - - - -
28/09:00pm 18.2 SSW 12 19 1018.6 - 0.0 - - - - - - -
28/08:30pm 18.3 SSW 10 19 1018.5 - 0.0 - - - - - - -
28/08:00pm 17.8 S 11 16 1018.5 - 0.0 - - - - - - -
28/07:30pm 17.9 SSW 9 15 1018.5 - 0.0 - - - - - - -
28/07:00pm 18.2 SSW 8 12 1018.2 - 0.0 - - - - - - -
28/06:30pm 18.0 SSW 11 18 1017.9 - 0.0 - - - - - - -
28/06:00pm 17.9 S 13 21 1017.6 - 0.0 - - - - - - -
28/05:30pm 17.8 S 13 21 1017.4 - 0.0 - - - - - - -
28/05:08pm 17.9 S 15 25 1017.1 - 0.0 - - - - - - -
28/05:00pm 18.1 S 14 24 1016.9 - 0.0 - - - - - - -
28/04:45pm 18.1 S 15 25 1016.7 - 0.0 - - - - - - -
28/04:30pm 18.4 S 15 24 1016.5 - 0.0 - - - - - - -
28/04:10pm 18.8 S 15 28 1016.3 - 0.0 - - - - - - -

Other Formats:

Comma delimited format used in spreadsheet applications
http://www.bom.gov.au/fwo/IDN60701/IDN60701.94589.axf

JavaScript Object Notation format (JSON) in row-major order
http://www.bom.gov.au/fwo/IDN60701/IDN60701.94589.json